Weather in Villingen-Schwenningen

Germany     48°03′36″N   8°29′12″E
temp.,
°C
wind,
m/s
gust,
m/s
humid.,
%
clouds,
%
prec.,
mm/h
press.,
hPa
HPBL,
m
14 may, fri
fri1423:00+4wsw1188100 0.0 101011
02:00+3ssw2290100 0.0 101117
05:00+2sw22935 0.0 101015
08:00+7sw12803 0.0 1010169
11:00+12wnw245333 0.1 10081757
14:00+13wnw235299 0.3 10081835
17:00+12wnw347159 1.1 10081049
20:00+8w3685100 1.8 1010232
15 may, sat
sat1523:00+4ssw239499 0.1 101350
02:00+4ssw36952 0.1 1013125
05:00+3s369662 0.0 1012120
08:00+6s3689100 0.0 1011398
11:00+8sw5883100 0.4 1009890
14:00+8sw61080100 0.8 10081106
17:00+5sw51195100 1.9 1009968
20:00+5sw41296100 3.6 10091112
16 may, sun
sun1623:00+6sw4129483 1.3 1010850
02:00+6sw51093100 1.4 1010825
05:00+6sw4109366 0.1 1009480
08:00+7sw478690 0.1 1009802
11:00+6s4994100 0.9 1009641
14:00+9sw5108880 1.2 10081114
17:00+10ssw489393 1.8 1007777
20:00+8wsw7148980 4.7 1007892
17 may, mon
mon1723:00+7wsw6148830 0.1 1010674
02:00+6wsw5138712 0.1 1010716
05:00+5wsw6148549 0.0 1010924
08:00+6wsw8157971 0.0 10111051
11:00+8wsw8147031 0.0 10111337
14:00+8w8148692 0.9 10121267
17:00+10wsw813729 0.3 10111450
20:00+8wsw61377100 0.4 10121050
18 may, tue
tue1823:00+6wsw61388100 0.2 1014887
02:00+6sw61195100 2.0 1014930
05:00+6wsw4996100 3.1 1015973
08:00+5wsw4995100 3.7 1017884
11:00+7wsw598479 0.4 10191084
14:00+10w696581 0.8 10191638
17:00+9w687643 1.0 10201194
20:00+7wsw37913 1.9 1022398